EHI
45 50 54 54 53 51 47 43 44 42 38 34 29 23 19 14 12 11 8 4 1 0 0 0 0 0 0 1 1 1 1 0 0 0 0 0 0 0 0 0 0 0 0
50 53 54 53 53 52 48 45 46 45 42 37 30 23 19 14 12 10 7 4 1 0 0 0 0 1 1 2 2 2 2 1 0 0 0 0 0 0 0 0 0 0 0
52 55 55 52 51 51 48 46 47 47 45 40 31 24 20 17 13 10 7 5 2 0 0 0 1 2 3 3 3 3 4 3 1 0 1 1 0 0 1 0 0 1 1
48 54 57 53 48 45 43 44 46 46 45 40 33 27 23 17 13 11 9 6 4 2 2 1 1 2 3 3 2 3 4 4 2 1 2 2 1 0 0 0 0 0 0
44 51 56 54 45 38 37 40 42 44 43 39 35 30 24 17 13 13 12 10 7 5 3 1 0 1 1 1 1 1 2 3 2 2 3 2 2 1 0 0 0 0 0
43 47 52 52 44 37 36 38 39 41 41 38 34 31 26 21 18 17 15 13 12 9 5 3 2 1 1 1 1 1 1 2 1 1 2 2 2 2 1 1 0 0 0
39 43 46 47 45 41 40 41 42 42 39 34 31 28 25 22 19 17 14 14 13 10 7 5 5 4 3 2 3 3 1 1 1 1 3 4 4 4 4 3 1 0 0
33 37 40 43 46 46 45 46 45 42 38 33 29 24 20 16 13 11 10 11 10 7 5 5 6 5 3 3 5 4 2 2 2 2 4 7 7 7 8 8 5 2 1
32 34 38 41 46 48 46 45 44 40 36 34 28 23 18 13 9 7 6 6 6 4 2 3 4 5 4 4 5 4 3 4 5 5 7 9 10 11 11 11 10 6 3
33 37 40 41 42 43 42 41 40 37 34 31 25 21 18 14 9 5 4 3 4 3 2 2 3 5 5 5 5 4 3 4 6 8 9 9 11 11 12 12 13 11 8
36 40 42 39 35 34 34 35 35 32 29 24 19 17 15 11 7 4 3 2 2 2 3 3 4 5 4 4 5 4 3 5 7 8 8 8 8 9 11 12 12 12 10
42 44 44 38 31 27 28 30 29 26 22 18 16 15 13 9 5 3 3 1 1 2 3 3 4 4 3 3 4 5 5 7 8 8 8 6 6 7 10 10 10 9 8
50 49 46 40 31 26 25 25 24 20 17 16 15 14 11 8 5 4 4 4 3 2 3 4 4 4 3 3 5 7 8 9 10 9 8 6 5 6 7 8 8 7 5
53 51 49 43 35 28 25 24 23 18 14 13 13 12 9 6 5 4 5 5 3 2 4 5 5 4 4 4 6 8 9 8 8 8 6 5 4 5 6 6 7 7 5
52 51 50 45 39 33 27 24 22 17 14 13 13 11 7 4 4 4 4 4 2 1 3 5 5 5 5 5 7 8 7 6 6 5 4 3 3 4 4 4 4 4 4
49 50 49 48 43 36 29 24 21 18 17 15 13 9 6 4 3 3 3 3 3 2 2 3 5 6 5 4 4 5 4 4 4 3 3 2 2 1 1 1 1 1 2
50 50 50 47 44 36 28 22 18 16 16 13 10 7 5 5 3 1 2 4 5 3 2 3 3 4 4 2 1 1 2 2 3 2 2 2 1 0 0 0 0 0 0
54 56 54 47 40 33 25 18 13 11 10 8 6 3 3 3 2 1 2 4 5 3 3 3 2 1 1 0 0 0 0 1 1 1 1 1 0 0 0 0 0 0 0
60 60 55 46 38 31 24 17 11 7 6 5 3 2 1 2 2 1 1 3 3 2 2 2 1 0 0 0 0 0 0 0 0 0 0 0 0 0 0 0 1 1 0
62 59 51 42 35 31 26 20 13 8 6 5 5 3 3 2 1 0 0 2 2 1 1 1 0 0 0 0 0 0 0 1 1 0 0 0 0 0 0 1 2 1 1
59 55 47 38 34 32 28 23 15 9 6 7 7 6 4 2 1 0 1 2 2 1 1 1 0 1 1 0 0 0 0 1 1 1 1 1 1 0 0 1 1 1 0
52 49 43 39 35 32 28 22 14 8 6 8 8 6 4 3 2 1 2 3 3 3 2 2 1 1 1 0 0 0 0 1 1 1 2 2 1 0 0 0 0 0 0
45 43 40 37 34 31 26 19 11 7 6 7 6 5 5 5 4 3 3 3 2 2 2 2 1 1 1 0 0 0 0 0 0 1 1 1 0 0 0 0 0 0 0
37 35 33 30 27 24 20 14 9 7 7 6 5 6 7 6 5 4 3 2 1 1 1 1 1 1 1 0 0 0 0 0 0 0 0 0 0 0 0 0 0 0 0
29 27 24 21 17 14 12 9 7 7 8 6 5 6 7 5 5 4 3 2 1 0 0 1 2 2 1 0 0 0 0 0 0 0 0 0 0 0 0 0 0 0 0
25 22 19 16 11 8 7 7 6 7 8 7 6 5 5 4 4 4 2 1 1 0 0 1 1 1 1 0 0 0 0 0 0 0 0 0 0 0 0 0 0 0 0
Wind_Speed
10 11 12 12 13 13 14 13 13 12 10 8 8 8 7 6 6 6 7 8 7 7 6 5 6 6 5 5 6 5 6 5 4 3 3 3 5 4 4 4 4 5 5
10 11 12 13 13 14 14 13 13 12 12 9 7 6 6 5 5 5 6 8 8 8 7 7 6 6 5 6 6 6 5 5 5 4 3 4 4 5 5 4 5 5 5
11 11 12 13 13 13 14 12 12 12 12 10 7 6 5 5 6 7 7 8 9 9 7 8 7 6 7 6 7 7 7 5 5 5 4 4 3 3 4 5 4 4 4
9 10 11 12 12 12 12 12 12 12 11 10 9 10 8 8 7 6 6 6 8 8 8 8 8 7 6 6 8 8 6 7 6 5 5 5 3 3 2 5 5 5 4
8 10 10 11 10 11 11 11 11 11 11 11 11 10 9 7 5 5 6 6 7 8 8 8 8 8 7 7 8 6 8 7 7 5 5 5 5 6 5 4 4 4 4
7 8 9 9 9 9 10 10 11 11 11 11 10 10 10 8 7 7 6 6 6 6 8 8 8 8 7 8 8 7 9 8 7 6 5 5 5 5 5 5 5 4 3
8 8 9 10 9 10 10 10 10 10 10 11 10 10 9 9 9 8 7 7 6 6 8 8 8 8 8 8 7 7 8 8 8 8 6 6 6 5 5 5 4 4 3
8 8 8 9 9 10 10 10 10 9 9 9 8 8 9 7 6 7 6 7 6 6 7 8 8 9 8 8 7 7 7 7 7 8 7 6 6 5 5 5 5 5 4
8 8 7 8 8 8 9 9 9 8 8 8 8 7 7 7 6 6 7 6 5 6 7 7 7 8 7 7 7 6 7 6 7 7 8 7 5 5 5 5 5 5 5
9 8 7 8 7 7 7 7 8 8 8 7 7 6 7 7 6 6 6 6 6 6 6 6 7 7 7 7 7 6 6 6 5 5 5 6 5 5 5 5 5 5 5
9 9 8 8 8 8 8 7 7 7 6 6 6 6 5 5 5 5 5 5 5 6 6 6 6 7 7 6 6 6 5 5 5 5 6 6 5 4 4 4 4 4 4
9 9 9 8 8 8 8 7 6 6 5 5 5 5 4 4 4 5 4 4 4 5 5 5 5 6 6 6 6 6 6 6 6 5 5 5 4 5 5 4 4 4 3
10 10 9 9 8 8 7 7 7 6 5 5 5 4 4 4 3 3 3 4 4 4 4 4 5 5 4 5 5 5 6 6 5 4 4 5 5 5 4 4 4 3 3
10 10 9 9 8 8 7 7 6 6 5 5 4 4 3 3 3 3 2 2 3 3 3 3 4 4 4 4 4 4 4 4 3 3 3 4 4 4 4 4 3 3 3
11 11 10 9 9 8 8 7 6 6 5 5 4 4 3 3 3 2 2 2 2 2 2 2 2 2 2 2 2 3 3 3 2 2 2 2 1 1 1 2 3 3 3
12 12 11 10 10 9 8 7 7 6 6 5 5 4 4 3 3 2 2 3 2 2 2 2 2 2 1 1 1 2 3 3 3 2 2 1 2 4 6 6 6 4 2
12 12 11 10 10 9 9 8 7 7 6 6 5 4 4 4 4 3 3 3 3 4 3 3 3 2 3 4 3 3 3 2 2 2 2 2 2 4 5 8 8 8 8
12 12 11 11 10 10 9 8 8 7 6 6 5 5 4 4 4 4 4 3 3 3 3 3 3 3 4 5 4 5 5 4 3 3 3 3 3 4 6 7 7 7 7
11 11 11 11 11 10 10 9 8 7 6 6 5 5 4 5 5 5 4 3 3 4 3 3 4 4 4 5 5 5 5 5 5 4 4 4 5 5 7 8 9 9 8
10 11 11 11 11 10 10 9 8 7 6 5 5 5 5 5 5 5 4 4 4 4 4 4 3 3 3 5 4 4 4 5 5 5 5 7 6 6 5 8 9 9 8
10 11 11 10 10 10 9 8 8 7 6 5 5 5 5 5 5 4 4 4 4 4 4 4 4 3 3 5 5 2 3 4 5 5 4 5 9 8 6 6 7 8 8
10 10 10 9 9 9 9 8 7 6 6 6 6 5 5 4 4 5 4 4 4 4 4 3 3 3 4 4 5 5 3 3 5 5 5 7 9 9 8 7 8 8 6
9 9 9 10 8 8 7 8 7 6 6 6 5 5 5 4 4 4 4 4 3 3 3 3 3 3 4 5 7 6 6 5 5 6 9 9 9 10 9 10 8 6 5
8 8 9 9 8 7 7 7 7 6 6 6 5 5 5 4 4 2 2 2 2 2 2 2 3 3 4 4 5 6 6 8 8 9 11 11 8 7 9 8 6 4 5
7 7 7 8 8 7 7 7 6 6 6 6 5 4 4 5 4 3 2 1 2 2 0 2 3 3 3 3 3 3 4 5 6 8 7 6 6 6 6 6 5 5 5
7 7 7 8 8 7 7 6 6 6 6 5 5 4 4 4 4 4 5 9 7 8 8 6 3 4 5 6 7 6 7 7 6 6 6 6 5 5 6 5 5 5 4
Wind_Direction
178 177 180 180 178 179 184 189 190 186 188 190 194 196 197 200 204 208 200 201 205 201 209 216 197 214 210 211 211 207 201 210 205 217 213 215 217 215 210 218 223 213 211
174 175 181 182 186 187 190 192 193 190 192 192 192 198 196 202 205 210 204 207 206 206 205 216 214 208 211 214 219 214 224 214 204 220 222 217 206 212 214 207 215 228 218
179 176 181 185 189 192 194 195 192 190 193 190 187 185 191 203 205 207 207 207 210 211 216 213 223 214 218 214 217 216 221 226 218 222 237 249 233 190 192 208 211 219 225
181 176 182 186 191 193 192 192 189 190 190 188 195 195 202 211 213 206 201 201 210 212 213 217 221 223 228 222 223 218 224 228 229 216 236 259 293 253 217 197 195 200 212
176 175 181 183 186 188 186 186 186 189 191 194 199 203 213 217 213 203 198 209 210 216 219 219 220 223 232 229 234 226 229 227 232 230 222 226 229 242 248 232 206 195 199
162 165 171 171 174 178 179 178 183 190 191 197 204 209 215 214 210 207 205 211 211 214 219 223 222 224 230 228 228 229 228 237 238 244 242 232 232 235 238 237 225 215 205
155 158 164 168 170 174 174 175 180 186 191 196 202 208 212 212 214 218 216 216 217 217 217 221 221 226 227 228 227 228 235 231 231 235 241 243 245 251 251 250 245 226 210
150 151 157 165 168 170 171 173 177 182 187 196 202 208 213 216 218 220 224 221 223 225 224 221 224 227 227 229 224 231 230 230 232 236 242 247 244 247 247 246 247 237 226
147 148 147 152 157 164 167 170 170 173 182 194 199 206 208 213 216 220 224 228 227 227 224 222 226 227 226 230 231 232 231 229 233 236 234 240 242 244 249 249 243 244 242
149 147 145 145 148 151 154 158 162 171 177 188 195 196 203 205 213 221 223 226 225 228 228 226 227 228 228 228 230 233 230 227 232 241 245 241 241 239 237 240 244 246 247
152 147 145 144 144 146 148 152 157 167 175 182 187 194 198 199 203 213 222 224 223 221 223 228 231 230 228 227 225 228 226 229 233 235 233 236 247 246 241 233 234 239 237
152 149 148 148 149 149 151 152 157 164 168 172 178 186 190 193 200 208 213 216 218 222 222 221 227 234 230 227 222 224 223 224 228 232 234 238 236 235 245 238 236 237 238
157 155 154 156 154 151 151 152 156 157 160 164 172 178 187 188 195 204 207 208 208 216 220 217 219 224 228 228 224 223 226 224 229 228 229 236 235 230 231 229 233 231 226
163 163 161 161 158 155 153 154 151 149 153 159 165 172 182 182 186 187 189 195 198 204 209 218 221 219 221 227 224 220 219 213 221 228 230 236 232 224 220 215 220 225 219
169 169 167 163 160 156 154 150 145 145 148 149 150 155 158 155 150 148 157 161 166 175 180 191 195 202 212 222 211 199 186 187 193 206 216 213 170 134 168 191 192 197 197
174 171 167 163 161 158 154 148 145 144 145 143 136 131 133 129 127 128 128 129 128 125 130 139 139 139 149 81 147 188 170 167 169 179 188 171 150 118 103 89 79 81 146
174 171 167 164 159 155 151 148 146 145 144 138 131 127 126 124 120 122 121 119 111 104 99 98 97 93 79 85 101 131 147 134 131 142 154 150 122 133 130 111 98 82 73
172 166 161 157 154 151 147 147 147 147 145 140 137 136 133 126 120 115 108 104 102 101 97 93 93 92 78 89 107 119 116 102 93 94 112 120 110 116 125 121 109 94 78
166 160 158 154 150 149 149 149 149 148 148 146 144 142 139 133 129 122 115 110 106 103 105 101 97 95 86 85 105 128 122 111 99 88 85 102 111 109 128 125 116 105 93
155 152 150 148 149 149 151 153 152 152 154 150 146 142 143 140 134 127 124 118 115 114 111 103 98 99 94 84 98 133 131 123 118 104 96 84 96 107 119 128 124 117 110
148 148 148 149 148 150 152 154 152 151 148 142 139 134 135 136 135 130 131 132 131 123 119 113 105 98 92 97 94 105 139 131 127 120 112 98 101 102 95 108 113 120 125
144 146 143 140 143 149 153 150 146 140 140 140 138 137 139 140 136 137 137 139 142 140 138 129 118 112 106 95 95 87 82 96 118 117 112 106 108 103 97 98 104 120 130
139 142 139 135 137 145 152 146 136 137 140 139 138 136 135 133 136 143 148 150 156 158 150 145 136 125 117 110 106 103 91 87 99 95 97 109 118 118 103 103 114 130 120
134 137 137 136 134 138 140 134 135 140 140 138 136 137 139 135 123 122 138 148 151 153 155 154 149 142 139 138 138 135 127 124 114 111 114 116 108 104 106 119 117 99 86
126 130 133 131 130 132 131 132 138 144 143 142 143 142 136 128 119 99 58 82 74 45 152 161 158 158 149 116 99 138 139 135 129 133 132 131 131 124 120 115 108 108 113
124 127 128 128 127 126 124 126 134 143 145 144 143 143 139 135 133 123 93 55 61 60 52 40 61 86 95 117 118 109 106 116 139 143 132 133 135 131 127 124 119 113 108